"Pseudo-MPEC" for P11JDFT

Created 2023 Sep 19 11:22:27 UT using Find_Orb

Click here for an explanation of pseudo-MPECs

 
 Astrometry: 
     P11JDFT  C2023 09 08`(_lV2rY[;W4t0CqRY\bxqY^UWk^+dn=6N[qiAstrometryl`=)5F51
     P11JDFT  C2023 09 08.cik%gEw!),X_RPC]:8TQ@5c[b'7FpFc_kh'6e\sr:XJkUa_G;jgF51
     P11JDFT  C2023 09 08*m+e/2U\AGa7^0RSBxR=7y2(AOL[^88nt:redacted;foMLSTdd,F51
     P11JDFT  C2023 09 12=`co8-l953/9k+]JYw7NmdTGr?eY6KB,m0o(wYj$Oa'click.86,F52
     P11JDFT  C2023 09 12\kS/drhCd`;fSK65o5FMlu4s)Lk@2'ee6O]$)[hDv/wygXHV%uHTF52
     P11JDFT  C2023 09 12/u^5@XHHwg^%=c:_-jn_FGL%o(^j+8SZPC!.EhereI_2ae7$O+d\F52
     P11JDFT* C2023 09 15v2ABZGG)*_N5x[oN$J7Isv6[b'_fork3#M/6IQJpS-Tl[ij=9sucF51
     P11JDFT  C2023 09 150E7`5L1mOiA8YDj]nwjIilexplanation4C_-rIqq:W,fZIQ'R@HF51
     P11JDFT  C2023 09 15kSF56;2'Ua0i*pPVsGN3YZSm]*t6%w'XCo8(PV]7A'ukWQd%YQ8:F51
     P11JDFT 3C2023 09 16^+QhYgmVHLTulK#^xe7ivB-!8mpvR!d2C2Bk^vdYCd^xAkggNsCfT14
     P11JDFT 3C2023 09 16Ambso+88(]v$!/!@G!vGSl@64HcW4^KPXtW=foEIFJ%/%EW'A$49T14
     P11JDFT 3C2023 09 16KU)_#mplQABcoy'[IL_oPd$V/[7P:Kj?Zs$8@t^Lp5?Zp!)C`RMJT14
     P11JDFT 3C2023 09 180]YFtc:-Y4[7Ued'5EqUYgVbdpn8@XuS$Jpr$$Ql9Bsn.7PC\!R;T14
     P11JDFT 3C2023 09 18B.W-X%yx8N+pRiVZt#M=vu%gK$U?I=Q0v0/NH7Z?j6.J(#QyyL$AT14
     P11JDFT 3C2023 09 18R'EX\d[SokOZT$(l8G\(/\,l`]k9/JZaQ%tgDU@m!JMUNVG@W]HAT14

Station data:
(F51) Pan-STARRS 1, Haleakala  (N20.707234 W156.255910)  US/Hawaii.
   Observers J. Bulger, T. Lowe, A. Schultz, M. Willman. Measurers K.
   Chambers, S. Chastel, T. de Boer, L. Denneau, J. Fairlamb, H. Flewelling,
   M. Huber, C.-C. Lin, E. Magnier, Y. Ramanjooloo, R. Wainscoat, R. Weryk.
   1.8-m Ritchey-Chrétien + CCD.
(F52) Pan-STARRS 2, Haleakala  (N20.707382 W156.255910)  US/Hawaii.
   Observers J. Bulger, T. Dukes, T. Lowe, A. Schultz, M. Willman. Measurers
   K. Chambers, S. Chastel, T. de Boer, L. Denneau, J. Fairlamb, H.
   Flewelling, M. Huber, C.-C. Lin, E. Magnier, Y. Ramanjooloo, R. Wainscoat,
   R. Weryk. 1.8-m Ritchey-Chrétien + CCD.
(T14) Mauna Kea-UH/Tholen NEO Follow-Up (CFHT)  (N19.825252 W155.468876)
   US/Hawaii.  Observer R. Weryk. 3.6-m Canada-France-Hawaii Telescope.

Orbital elements:  P11JDFT
   Perihelion 2023 Oct 27.03622 +/- 0.00447 TT =  0:52:09 (JD 2460244.53622)
Epoch 2023 Sep 18.0 TT = JDT 2460205.5   Earth MOID: 0.0264   Ma: 0.0099
M 350.16757135 +/- 0.026            (J2000 ecliptic)             AutoNEOCP
n   0.25187960 +/- 0.000661         Peri.  324.29218 +/- 0.018
a   2.48317532 +/- 0.00434          Node    74.89228 +/- 0.019
e   0.5960659 +/- 0.000699          Incl.    2.58852 +/- 0.0022
P   3.91                   H 25.15  G  0.15   U  7.8
q 1.00303911 +/- 1.94e-5    Q 3.96331153 +/- 0.00867
From 15 observations 2023 Sept. 8-18; mean residual 0".13
Residuals in arcseconds: 
230908 F51  .06-  .03-    230912 F52  .12+  .11+    230916 T14  .01+  .04-    
230908 F51  .27+  .02+    230915 F51  .05+  .11+    230916 T14  .03+  .01+    
230908 F51  .01+  .10+    230915 F51  .04+  .04+    230918 T14  .01-  .01-    
230912 F52  .15-  .03+    230915 F51  .05+  .04-    230918 T14  .01-  .00     
230912 F52  .52-  .31-    230916 T14  .06+  .02+    230918 T14  .03-  .02+    

Ephemerides (geocentric):
Date (UTC) HH   RA             Dec           delta  r     elong  mag " sig PA
---- --------  ------------   ------------  ------ ------ -----  --- --------
2023 09 19 11  00 24 54.473   -23 41 42.89  .12124 1.1165 155.9 21.9 .143  31
2023 09 19 12  00 25 09.386   -23 42 23.85  .12104 1.1162 155.9 21.9 .146  31
2023 09 19 13  00 25 24.349   -23 43 04.78  .12083 1.1160 155.8 21.9 .148  31
2023 09 19 14  00 25 39.365   -23 43 45.66  .12062 1.1158 155.8 21.8 .151  31
2023 09 19 15  00 25 54.431   -23 44 26.51  .12041 1.1155 155.8 21.8 .154  31
2023 09 19 16  00 26 09.549   -23 45 07.31  .12021 1.1153 155.7 21.8 .157  31
2023 09 19 17  00 26 24.719   -23 45 48.07  .12000 1.1151 155.7 21.8 .160  31
2023 09 19 18  00 26 39.941   -23 46 28.78  .11980 1.1149 155.7 21.8 .163  31
2023 09 19 19  00 26 55.215   -23 47 09.46  .11959 1.1146 155.6 21.8 .166  31
2023 09 19 20  00 27 10.542   -23 47 50.08  .11938 1.1144 155.6 21.8 .169  32
2023 09 19 21  00 27 25.921   -23 48 30.66  .11918 1.1142 155.6 21.8 .172  32
2023 09 19 22  00 27 41.354   -23 49 11.20  .11897 1.1139 155.5 21.8 .176  32
2023 09 19 23  00 27 56.839   -23 49 51.69  .11877 1.1137 155.5 21.8 .179  32
2023 09 20 00  00 28 12.378   -23 50 32.12  .11856 1.1135 155.4 21.8 .182  32
2023 09 20 01  00 28 27.970   -23 51 12.51  .11836 1.1132 155.4 21.8 .185  32
2023 09 20 02  00 28 43.616   -23 51 52.85  .11816 1.1130 155.4 21.8 .189  32
2023 09 20 03  00 28 59.316   -23 52 33.14  .11795 1.1128 155.3 21.8 .192  32
2023 09 20 04  00 29 15.071   -23 53 13.37  .11775 1.1126 155.3 21.8 .195  32
2023 09 20 05  00 29 30.880   -23 53 53.56  .11754 1.1123 155.3 21.8 .199  32
2023 09 20 06  00 29 46.743   -23 54 33.69  .11734 1.1121 155.2 21.8 .202  33
2023 09 20 07  00 30 02.662   -23 55 13.76  .11714 1.1119 155.2 21.8 .206  33
2023 09 20 08  00 30 18.635   -23 55 53.78  .11693 1.1116 155.2 21.8 .209  33
2023 09 20 09  00 30 34.664   -23 56 33.74  .11673 1.1114 155.1 21.8 .213  33
2023 09 20 10  00 30 50.749   -23 57 13.64  .11653 1.1112 155.1 21.8 .216  33
2023 09 20 11  00 31 06.890   -23 57 53.48  .11633 1.1110 155.0 21.8 .220  33
2023 09 20 12  00 31 23.086   -23 58 33.27  .11612 1.1107 155.0 21.8 .223  33
2023 09 20 13  00 31 39.339   -23 59 12.99  .11592 1.1105 155.0 21.8 .227  33
2023 09 20 14  00 31 55.648   -23 59 52.65  .11572 1.1103 154.9 21.8 .231  33
2023 09 20 15  00 32 12.015   -24 00 32.25  .11552 1.1101 154.9 21.8 .235  33
2023 09 20 16  00 32 28.438   -24 01 11.78  .11532 1.1098 154.9 21.8 .238  33
2023 09 20 17  00 32 44.918   -24 01 51.25  .11512 1.1096 154.8 21.8 .242  33
2023 09 20 18  00 33 01.456   -24 02 30.65  .11492 1.1094 154.8 21.8 .246  34
2023 09 20 19  00 33 18.052   -24 03 09.99  .11472 1.1092 154.8 21.8 .250  34
2023 09 20 20  00 33 34.705   -24 03 49.26  .11452 1.1089 154.7 21.8 .254  34
2023 09 20 21  00 33 51.417   -24 04 28.46  .11432 1.1087 154.7 21.8 .258  34
2023 09 20 22  00 34 08.187   -24 05 07.59  .11412 1.1085 154.6 21.7 .262  34
2023 09 20 23  00 34 25.016   -24 05 46.64  .11392 1.1083 154.6 21.7 .266  34
2023 09 21 00  00 34 41.904   -24 06 25.63  .11372 1.1080 154.6 21.7 .270  34
2023 09 21 01  00 34 58.851   -24 07 04.54  .11352 1.1078 154.5 21.7 .275  34
2023 09 21 02  00 35 15.858   -24 07 43.38  .11332 1.1076 154.5 21.7 .279  34
2023 09 21 03  00 35 32.924   -24 08 22.14  .11312 1.1074 154.4 21.7 .283  34
2023 09 21 04  00 35 50.050   -24 09 00.82  .11292 1.1071 154.4 21.7 .287  34
2023 09 21 05  00 36 07.236   -24 09 39.42  .11272 1.1069 154.4 21.7 .292  34
2023 09 21 06  00 36 24.482   -24 10 17.95  .11252 1.1067 154.3 21.7 .296  35
2023 09 21 07  00 36 41.790   -24 10 56.39  .11233 1.1065 154.3 21.7 .301  35
2023 09 21 08  00 36 59.158   -24 11 34.76  .11213 1.1062 154.3 21.7 .305  35
2023 09 21 09  00 37 16.587   -24 12 13.04  .11193 1.1060 154.2 21.7 .310  35
2023 09 21 10  00 37 34.077   -24 12 51.23  .11173 1.1058 154.2 21.7 .314  35